Weather observations for the past three days for
Sisseton, Sisseton Municipal Airport
Imperial (Metric)
Date Time (cdt) Wind (mph) Vis. (mi.) Weather Sky Cond. Temperature (ºF) Relative Humidity Wind Chill (°F) Heat Index (°F) Pressure Precipitation (in)
Air Dwpt 6 hour altimeter (in) sea level (mb) 1 hr 3 hr 6 hr
Max. Min.
06 06:56 NW 8 0.00 NULL NULL 35.1 26.1 37 35.1 70% 29 30.02 1017.9
06 05:56 NW 9 0.00 NULL NULL 35.1 26.1 70% 29 30.01 1017.1
06 04:56 NW 8 0.00 NULL NULL 36 25 64% 30 30 1017.0
06 03:56 NW 6 0.00 NULL NULL 35.1 26.1 70% 31 29.99 1016.7
06 02:56 NW 6 0.00 NULL NULL 36 25 64% 32 29.99 1016.5
06 01:56 NW 7 0.00 NULL NULL 36 26.1 67% 31 29.99 1016.7
06 00:56 NW 6 0.00 NULL NULL 35.1 25 45 30.9 67% 31 29.99 1016.8
05 23:56 NW 8 0.00 NULL NULL 34 24.1 67% 28 29.98 1016.5
05 22:56 NW 7 0.00 NULL NULL 32 24.1 73% 26 29.98 1016.6
05 21:56 NW 8 0.00 NULL NULL 35.1 24.1 64% 29 29.97 1015.9
05 20:56 N 10 0.00 NULL NULL 39.9 23 51% 34 29.94 1015.0
05 19:56 NW 14 0.00 NULL NULL 43 21.9 43% 37 29.93 1014.4
05 18:56 N 16 G 26 0.00 NULL NULL 44.1 21.9 48 44.1 41% 37 29.91 1014.3
05 17:56 NW 17 0.00 NULL NULL 46 21.9 38% 40 29.91 1014.1
05 16:56 NW 15 0.00 NULL NULL 46.9 23 39% 41 29.91 1014.1
05 15:56 NW 18 0.00 NULL NULL 46 23 40% 39 29.91 1014.1
05 14:56 N 14 G 22 0.00 NULL NULL 46.9 23 39% 42 29.91 1013.8
05 13:56 N 16 0.00 NULL NULL 46 23 40% 40 29.9 1013.5
05 12:56 NW 21 G 29 0.00 Breezy NULL 45 19.9 46.9 32 37% 37 29.89 1013.2
05 11:56 NW 24 G 31 0.00 Breezy NULL 46 19 34% 38 29.88 1012.7
05 10:56 NW 17 G 30 0.00 NULL NULL 46 19.9 35% 40 29.87 1012.5
05 09:56 NW 22 G 30 0.00 Breezy NULL 45 21 39% 37 29.86 1012.1
05 08:56 NW 21 G 25 0.00 Breezy NULL 44.1 21.9 41% 36 29.85 1011.6
05 07:56 NW 14 0.00 NULL NULL 41 25 53% 34 29.84 1011.2
05 06:56 W 5 0.00 NULL NULL 32 26.1 39 28.9 79% 28 29.82 1010.9
05 05:56 W 5 0.00 NULL NULL 30 26.1 85% 26 29.82 1010.8
05 04:56 NW 3 0.00 NULL NULL 30 26.1 85% 29.81 1010.6
05 03:56 NW 6 0.00 NULL NULL 28.9 25 85% 23 29.81 1010.6
05 02:56 W 5 0.00 NULL NULL 34 27 76% 30 29.8 1009.9
05 01:56 NW 5 0.00 NULL NULL 36 27 70% 33 29.8 1009.9
05 00:56 NW 9 0.00 NULL NULL 37.9 26.1 51.1 36 62% 32 29.79 1009.5
04 23:56 W 8 0.00 NULL NULL 37 25 62% 32 29.77 1009.0
04 22:56 W 8 0.00 NULL NULL 37 26.1 65% 32 29.77 1008.9
04 21:56 W 7 0.00 NULL NULL 39 27 62% 35 29.76 1008.6
04 20:56 NW 9 0.00 NULL NULL 45 27 49% 41 29.73 1007.4
04 19:56 NW 17 G 25 0.00 NULL NULL 48 26.1 42% 42 29.72 1006.6
04 18:56 NW 18 G 30 0.00 NULL NULL 51.1 25 54 48.9 36% 29.7 1006.0
04 17:56 NW 24 G 31 0.00 Breezy NULL 50 25 38% 43 29.7 1006.1
04 16:56 NW 25 G 37 0.00 Breezy NULL 51.1 24.1 35% 29.7 1005.9
04 15:56 NW 25 G 39 0.00 Breezy NULL 52 23 32% 29.69 1005.5
04 14:56 NW 28 G 43 0.00 Windy NULL 52 23 32% 29.68 1004.6
04 13:56 W 21 G 36 0.00 Breezy NULL 53.1 27 37% 29.67 1004.3
04 12:56 NW 30 G 41 0.00 Windy NULL 48.9 28 52 46.9 44% 41 29.66 1004.2
04 11:56 NW 28 G 38 0.00 Windy NULL 50 28.9 44% 43 29.65 1003.7
04 10:56 N 28 G 36 0.00 Windy NULL 50 30.9 48% 43 29.63 1003.0
04 09:56 NW 23 G 36 0.00 Breezy NULL 48.9 32 52% 42 29.61 1002.5
04 08:56 NW 28 G 40 0.00 Windy NULL 48.9 32 52% 41 29.58 1001.6
04 07:56 NW 21 G 30 0.00 Breezy NULL 51.1 37.9 61% 29.56 1000.3
04 06:56 NW 15 0.00 NULL NULL 51.1 36 63 46.9 56% 29.53 999.2
04 05:56 NW 8 0.00 NULL NULL 48 37 66% 45 29.51 998.6
04 04:56 NW 12 0.00 NULL NULL 48.9 37.9 66% 45 29.5 998.2
04 03:56 NW 15 0.00 NULL NULL 51.1 37.9 61% 29.49 997.9
04 02:56 W 26 G 44 0.00 Windy NULL 63 37 38% 29.43 995.5
04 01:56 SW 28 G 44 0.00 Windy NULL 62.1 35.1 37% 29.4 994.5
04 00:56 SW 23 G 33 0.00 Breezy NULL 61 33.1 70 57 35% 29.45 996.0
03 23:56 SW 21 0.00 Breezy NULL 61 30.9 32% 29.48 997.4
03 22:56 SW 21 G 29 0.00 Breezy NULL 62.1 30 30% 29.51 998.5
03 21:56 SW 13 0.00 NULL NULL 57.9 32 38% 29.55 1000.0
03 20:56 SW 10 0.00 NULL NULL 57.9 33.1 39% 29.58 1001.3
03 19:56 SW 7 0.00 NULL NULL 66 30 26% 29.61 1002.3
03 18:56 W 12 0.00 NULL NULL 70 30 71.1 64.9 23% 29.63 1003.0
03 17:56 W 20 0.00 NULL NULL 71.1 30 22% 29.65 1003.7
03 16:56 W 17 G 24 0.00 NULL NULL 70 32 25% 29.68 1004.7
03 15:56 W 16 G 24 0.00 NULL NULL 70 32 25% 29.72 1005.8
03 14:56 NW 13 G 20 0.00 NULL NULL 69.1 28.9 22% 29.75 1006.8
03 13:56 W 14 G 24 0.00 NULL NULL 68 30 24% 29.78 1008.0
03 12:56 W 12 G 22 0.00 NULL NULL 66 30.9 66 45 27% 29.82 1009.2
03 11:56 N 12 G 20 0.00 NULL NULL 63 30 29% 29.83 1009.6
03 10:56 N 10 0.00 NULL NULL 60.1 32 35% 29.85 1010.1
03 09:56 NW 12 0.00 NULL NULL 57 35.1 44% 29.85 1010.5
03 08:56 NW 15 0.00 NULL NULL 52 32 47% 29.86 1010.8
03 07:56 NW 17 0.00 NULL NULL 48.9 30.9 50% 43 29.85 1010.4
Date Time (cdt) Wind (mph) Vis. (mi.) Weather Sky Cond. Air Dwpt Max. Min. Relative Humidity Wind Chill (°F) Heat Index (°F) altimeter (in) sea level (mb) 1 hr 3 hr 6 hr
6 hour
Temperature (ºF) Pressure Precipitation (in)